User: anonymous   Login
Location: A�t �Alizem
(31.2076°N, 8.7872°W)
Time: 16:44:55
(UTC+00:00)
Language:

SL-14 DEB - Orbit

View from above orbital plane
View from above orbital plane
View from above satellite
View from above satellite

Ground track
Ground track

The orbit data is extracted from the following two-line orbital elements,

1 39971U 87068CX  21173.57062442  .00000446  00000-0  37917-3 0  9996
2 39971  82.4598 285.1803 0065723 150.5509 223.6682 13.84407852357536
Epoch (UTC): 22 June 2021 13:41:41
Eccentricity: 0.0065723
inclination: 82.4598°
perigee height: 900 km
apogee height: 996 km
right ascension of ascending node: 285.1803°
argument of perigee: 150.5509°
revolutions per day: 13.84407852
mean anomaly at epoch: 223.6682°
orbit number at epoch: 35753

The dashed part of the orbit path shows where the satellite is in the earth's shadow,  

DLR